Helicity
21 30 26 24 17 8 26 52 44 71 97 110 106 134 160 218 220 121 209 174 94 72 67 69 66 86 71 86 46 102 91 103 84 65 48 40 44 62 84 111 119 142 113 93 94 111 177
-3 24 42 29 33 13 -14 15 22 48 54 89 121 118 128 164 218 187 221 142 86 49 56 55 88 79 69 26 65 69 65 73 48 31 20 25 39 59 66 63 77 76 102 94 96 101 94
23 48 41 54 21 16 18 10 12 11 27 32 94 115 123 163 191 221 184 132 72 83 57 60 92 53 30 3 35 55 58 37 45 16 7 27 35 31 75 39 57 36 48 54 90 100 114
25 29 23 26 34 40 26 22 25 29 3 7 69 88 96 99 144 210 168 117 68 8 11 82 71 34 23 32 28 36 21 15 21 17 4 15 33 31 38 40 26 34 24 12 8 66 49
17 33 12 24 26 33 24 33 28 14 10 11 41 54 81 34 186 125 121 86 52 1 57 79 52 39 16 44 29 9 9 20 26 29 12 15 29 62 94 64 35 36 40 15 -10 28 49
8 26 25 26 35 41 19 23 11 27 39 11 21 55 96 28 117 156 118 100 2 61 96 67 46 29 26 23 52 35 27 26 45 38 46 66 93 113 105 78 40 24 6 8 5 19 27
34 30 30 32 32 35 27 24 22 35 40 18 7 33 118 72 139 115 97 37 20 31 16 -2 49 52 32 18 32 46 43 47 55 62 72 136 127 73 41 41 66 -18 -0 4 -18 -18 8
21 9 23 37 38 29 23 29 25 33 35 12 12 42 74 123 122 43 124 43 59 59 9 -17 35 19 -9 -4 38 70 62 61 90 81 58 225 180 19 -1 30 24 -9 28 31 51 19 19
5 4 -10 14 24 31 17 1 7 21 27 5 34 44 45 138 76 76 25 22 52 44 28 20 23 -6 10 44 58 78 104 80 74 71 69 150 113 -13 5 29 33 36 68 13 -4 -5 75
25 -22 -0 -2 -16 -5 3 12 -13 15 10 3 18 55 68 113 56 77 37 -19 42 28 19 1 10 -9 52 32 41 90 87 72 90 64 47 81 48 35 29 54 98 104 77 68 -15 5 26
64 -4 -1 2 29 35 18 46 19 18 10 6 32 51 24 136 31 40 12 -0 18 44 -5 3 4 5 -5 17 13 112 145 99 95 65 43 36 65 66 91 89 74 48 15 147 75 52 24
32 18 17 45 24 24 20 18 23 19 17 26 33 53 13 54 33 28 -28 -10 41 -29 -25 -28 15 33 52 88 69 81 125 117 79 53 72 76 61 74 66 16 83 63 -1 -6 27 61 48
14 29 5 40 38 17 22 60 77 22 -6 18 19 56 38 21 25 -2 -31 31 -8 -56 45 34 36 44 47 39 40 68 94 79 40 70 71 63 30 43 61 51 -9 17 62 106 86 136 108
5 -0 17 13 32 28 29 15 12 23 30 30 60 -8 35 19 42 28 56 88 64 42 45 28 32 57 57 34 60 63 47 18 27 36 44 3 17 2 5 38 65 90 122 116 120 143 127
94 12 -49 -23 -25 34 7 17 -7 10 25 30 29 76 73 85 64 4 93 100 71 55 43 40 55 59 36 59 66 47 37 36 43 4 49 67 75 69 45 54 87 116 115 76 73 40 87
257 461 315 35 -11 -5 45 -18 11 40 32 56 99 137 141 61 47 71 88 83 71 53 44 57 52 34 40 36 60 45 28 19 31 44 7 59 61 63 90 100 134 115 79 57 98 167 107
278 115 218 266 73 33 35 68 60 47 54 70 122 66 79 59 67 115 58 45 62 57 62 58 26 34 28 43 48 47 36 28 28 60 55 71 45 71 78 81 52 12 -6 19 61 12 25
130 50 31 261 38 46 44 82 84 47 27 76 45 46 28 48 66 68 28 46 65 47 69 56 40 29 25 38 53 65 56 48 43 60 68 65 41 65 69 90 93 116 33 12 -7 -9 -28
96 140 57 192 110 -34 45 21 -16 24 19 11 61 54 31 71 39 28 8 35 37 37 47 39 21 20 23 29 41 44 59 56 46 34 43 84 56 106 117 129 106 97 107 100 79 62 -3
161 108 69 -2 88 13 -7 -31 8 69 -5 16 49 58 27 29 53 22 6 13 -15 19 40 32 7 19 27 18 20 29 25 36 54 45 66 65 26 64 30 45 93 54 72 77 46 42 7
168 118 73 10 -121 -64 11 15 -23 -61 -50 5 55 37 31 56 53 11 27 8 -5 -2 8 16 5 5 21 31 33 23 23 33 25 35 40 48 57 62 57 60 48 27 57 80 67 62 44
48 50 27 -29 4 51 54 78 63 -51 -34 -12 26 27 40 37 23 11 13 19 11 -12 10 5 9 1 3 20 21 21 36 23 14 34 23 30 41 66 51 46 52 52 68 59 48 42 3
-137 -120 -17 -37 -32 -39 -36 -46 -45 -19 45 -3 33 31 24 56 36 17 18 -3 10 5 -20 -13 6 10 9 3 -3 2 6 14 6 23 11 13 23 30 29 13 16 27 -5 -6 -14 -15 23
-85 -154 -106 -28 -63 -54 -55 -71 -59 -23 -21 17 29 -0 18 64 46 29 -2 3 8 -3 7 -6 4 17 3 -2 15 21 13 11 -0 -7 13 37 33 37 46 34 87 5 -14 -3 6 8 -8
51 -61 -105 -18 -13 -9 -8 -19 3 17 7 27 21 10 4 21 35 12 5 -1 -7 -12 -8 -7 -17 1 12 29 48 70 79 72 40 14 12 21 49 53 91 109 71 37 24 27 23 14 23
67 30 -26 -53 -19 -0 10 22 16 25 40 45 33 38 2 27 22 -3 -2 10 11 2 -2 -10 -13 16 18 19 36 41 37 38 39 38 19 21 19 31 23 28 30 -2 16 18 -12 -47 14
70 47 -3 -65 -55 -13 -42 -12 12 6 21 6 -1 -9 -25 -22 -13 22 15 5 12 8 -6 -10 5 12 3 12 16 17 22 17 27 24 12 10 9 19 6 6 -19 29 48 34 -24 -5 45
62 54 11 -45 -29 35 -0 -15 -16 -40 -7 24 1 10 1 -2 24 2 12 7 1 16 -12 -25 -2 -2 -4 7 6 1 15 3 19 13 14 17 27 30 18 27 26 83 61 -4 44 87 75
104 97 45 -19 -17 15 20 1 6 -39 -16 27 30 -3 26 28 39 51 46 26 13 -1 33 -15 -12 -16 -21 -11 -10 -13 6 3 -0 22 13 28 29 28 35 32 37 59 49 98 82 73 73
Wind_Speed
84 79 75 73 72 72 71 69 71 72 75 73 72 72 68 68 65 32 25 32 34 40 40 45 34 35 39 40 38 24 27 26 25 31 44 48 52 56 63 61 65 74 77 80 75 73 76
80 80 76 73 74 73 71 71 67 68 71 71 72 71 69 69 71 23 22 25 33 38 36 38 31 35 36 40 31 23 22 25 27 30 39 40 45 48 61 63 65 66 71 75 76 75 69
84 83 79 75 76 72 70 68 66 63 65 68 71 71 68 66 70 16 20 22 31 35 37 36 28 28 33 33 31 22 23 22 24 26 33 29 33 37 43 57 53 60 77 75 75 69 72
87 86 82 77 74 70 69 65 61 60 65 66 69 68 67 61 48 15 15 20 30 34 33 27 25 27 35 30 23 19 19 17 19 17 16 18 19 33 42 43 54 60 64 72 65 68 67
90 84 81 77 71 68 63 63 64 64 63 65 65 68 67 67 66 15 14 23 27 30 29 23 24 27 36 28 22 21 21 14 17 15 13 13 14 33 37 48 55 51 64 56 62 58 64
88 82 80 80 74 69 69 63 60 60 59 62 61 65 67 73 14 10 12 14 22 22 24 25 27 30 24 29 28 23 18 16 13 11 7 7 17 36 40 39 53 51 45 54 60 50 62
92 93 91 84 74 66 63 64 61 58 56 58 58 56 51 8 5 7 2 14 27 34 28 22 26 30 29 27 25 22 19 16 12 9 19 11 30 33 29 21 10 57 56 56 59 42 52
87 81 86 86 80 75 73 69 63 51 49 53 53 50 43 33 6 9 17 35 34 30 21 13 26 22 34 23 24 22 24 20 17 10 10 19 13 4 22 25 31 41 39 46 49 59 57
66 94 79 86 87 78 77 71 55 41 37 44 51 49 52 52 17 21 32 33 26 23 23 23 25 33 27 26 23 23 23 24 16 10 7 5 12 22 28 30 38 46 48 41 46 50 68
57 65 67 67 68 69 64 48 29 32 27 45 45 43 47 15 28 29 37 37 25 23 23 24 27 21 31 31 31 29 25 23 29 29 23 21 23 29 35 42 48 44 39 38 67 69 36
60 86 65 58 47 51 51 38 43 20 21 35 37 32 26 27 28 38 34 29 18 31 19 26 14 25 32 33 36 33 34 35 30 34 34 36 34 47 49 47 49 42 27 50 61 52 5
52 30 57 47 46 44 44 40 28 23 27 33 35 30 38 30 29 30 32 4 17 21 21 29 34 33 35 35 35 38 36 34 35 38 34 35 37 41 41 41 46 35 44 34 39 41 34
45 36 13 44 45 42 39 28 24 27 29 29 35 34 47 35 35 30 31 32 25 22 36 40 38 38 36 37 39 35 29 35 35 36 34 34 34 36 39 41 42 34 33 35 39 39 37
37 38 23 3 20 39 35 32 36 27 24 26 33 33 37 36 28 28 40 34 41 32 38 36 41 40 35 32 36 31 27 34 25 33 30 30 28 27 32 31 31 42 30 37 35 36 38
36 22 23 12 26 44 42 43 39 29 32 31 33 34 32 33 29 36 48 43 40 38 41 48 41 36 35 31 28 27 33 24 25 23 21 25 24 29 31 24 21 34 32 33 28 18 10
44 18 4 14 26 38 43 40 38 40 40 41 47 36 32 33 33 37 45 42 40 38 38 37 33 30 32 26 27 26 27 21 21 20 28 28 28 26 28 23 30 33 28 30 28 26 22
63 29 23 38 44 42 44 49 54 56 55 49 48 48 34 28 32 40 49 44 42 40 34 32 30 33 30 29 26 29 26 33 15 21 26 26 28 32 27 23 22 21 16 17 19 17 24
78 65 52 71 60 61 62 62 65 70 66 52 48 45 45 37 38 40 48 42 42 44 34 32 30 29 30 31 29 33 32 23 14 21 27 24 18 33 35 27 27 28 17 21 19 17 13
64 69 57 80 74 67 68 70 70 76 69 57 45 44 43 31 41 47 45 43 46 42 34 32 33 30 30 33 37 33 30 22 19 22 31 25 22 36 30 34 31 21 12 15 26 23 17
50 55 55 64 75 71 68 67 71 74 67 51 42 41 37 34 33 44 48 48 51 40 35 32 34 31 30 33 33 36 35 28 24 27 29 34 15 20 23 21 23 18 14 17 16 12 17
37 47 46 44 89 75 67 65 62 60 54 34 28 33 37 43 43 48 46 48 51 44 36 31 34 32 30 33 34 35 34 32 34 33 33 34 14 12 12 15 17 21 21 23 22 24 34
27 55 64 78 78 78 77 72 65 55 40 25 24 31 34 40 44 50 46 48 50 43 37 35 37 32 28 35 33 35 31 33 35 32 38 38 44 34 32 25 24 18 20 19 17 17 40
61 66 51 60 66 65 62 59 52 42 33 25 25 29 31 43 47 48 46 45 47 41 38 35 36 35 34 33 33 35 36 36 34 33 35 37 41 39 43 33 34 37 26 27 30 26 29
49 54 53 47 56 57 56 50 37 22 26 29 29 31 29 40 48 50 44 43 47 39 38 38 34 34 37 38 34 34 35 37 34 33 33 38 37 35 37 33 39 34 29 31 33 31 32
48 47 45 35 38 41 49 50 44 41 15 33 30 26 27 34 47 46 45 44 45 39 38 39 35 36 39 30 31 29 31 31 29 30 29 30 31 33 34 36 32 31 34 34 31 28 29
46 45 40 31 23 30 32 38 40 37 24 21 24 26 28 42 46 43 48 48 45 40 40 36 35 38 32 30 29 26 26 26 28 28 30 29 29 28 30 30 31 30 36 33 28 23 30
50 49 46 30 17 11 25 31 33 35 35 25 24 24 27 29 40 45 45 48 39 38 37 38 38 35 31 28 26 26 26 27 26 26 26 28 28 28 27 26 26 31 33 29 23 23 25
55 55 52 40 17 9 13 23 27 31 35 32 30 30 29 26 17 43 40 43 42 40 38 37 37 33 32 29 28 26 26 26 25 26 25 25 26 26 26 23 21 28 28 22 24 27 22
54 55 50 26 14 9 9 18 24 29 37 41 35 32 29 26 23 20 19 19 13 37 38 38 34 29 32 29 27 25 24 24 22 22 24 22 24 22 22 22 24 25 21 22 21 19 20
Wind_Direction
330 330 328 327 324 322 321 319 318 318 317 317 318 317 314 309 304 281 296 311 316 321 330 329 337 341 342 337 334 6 4 3 356 341 317 308 302 298 291 293 287 282 280 277 277 275 273
331 328 327 325 323 320 318 317 319 320 318 317 316 314 312 307 299 273 289 309 313 323 331 335 344 340 343 335 4 12 15 11 3 350 323 317 311 311 299 294 290 290 287 282 276 272 270
330 329 326 324 321 320 319 318 318 322 321 317 314 311 306 305 298 267 287 301 310 322 326 335 348 359 346 338 11 31 20 28 24 11 343 346 338 326 324 307 306 299 288 282 274 271 265
330 327 325 322 321 321 319 319 321 320 317 315 311 309 300 296 308 284 287 298 311 324 330 341 357 2 343 14 27 43 88 70 58 87 70 59 18 335 320 318 309 300 295 287 278 265 260
329 327 325 323 322 322 323 320 317 315 313 314 312 304 297 286 282 270 286 301 314 321 339 357 9 10 348 34 37 117 131 77 122 101 76 53 35 333 328 314 308 304 292 290 285 265 254
329 327 325 323 321 320 319 320 319 318 316 313 311 305 295 277 253 234 284 310 321 351 9 357 6 7 25 21 19 75 83 119 115 125 108 53 6 328 324 318 303 314 301 291 283 263 244
331 326 322 321 322 323 321 318 317 316 315 308 305 300 302 330 155 185 174 310 300 305 309 13 17 18 32 121 91 79 108 101 112 104 355 40 339 321 330 320 267 295 300 293 275 251 239
336 333 326 320 315 314 309 309 310 315 319 306 302 292 285 289 256 253 268 279 292 310 357 41 29 85 216 139 67 85 70 77 84 41 47 11 333 200 349 198 194 201 209 215 199 200 216
342 304 289 297 300 304 292 279 304 325 338 318 291 274 260 266 233 254 266 282 301 328 16 21 85 233 191 119 95 87 92 70 65 41 60 47 64 138 204 182 172 188 189 193 177 128 197
343 294 286 281 277 277 272 236 343 341 358 294 269 263 257 184 239 254 258 261 296 319 353 15 40 313 96 89 68 92 111 95 73 63 83 127 170 167 181 172 178 184 182 178 135 137 212
359 323 301 291 276 271 273 233 306 55 91 292 246 248 217 229 243 236 261 257 317 232 311 53 47 162 56 87 67 80 81 84 92 86 110 129 139 145 146 158 165 170 184 165 163 159 123
2 351 300 290 294 299 277 272 334 82 94 252 229 231 207 228 234 241 232 309 239 49 347 71 186 162 127 110 91 80 100 126 120 113 146 143 152 149 153 156 156 171 158 174 180 187 190
13 20 7 296 296 298 303 351 17 68 80 243 219 216 203 219 219 225 217 201 54 24 186 175 165 146 127 109 96 105 139 120 117 126 144 146 153 150 157 155 150 166 180 170 167 165 179
10 29 45 178 266 343 358 23 69 69 239 218 209 211 203 214 220 219 203 204 168 192 181 177 153 139 138 133 114 122 144 130 136 150 163 165 168 178 166 166 172 165 180 167 161 160 164
4 356 38 98 95 58 83 87 125 203 202 195 189 187 198 200 203 198 176 173 174 178 170 150 145 145 133 130 137 144 129 149 160 169 189 179 184 172 169 182 177 157 167 162 156 160 170
330 328 118 139 143 112 101 166 185 183 180 179 174 175 181 198 207 195 171 167 172 182 177 165 152 152 137 139 138 145 149 150 181 192 166 162 182 190 176 184 162 157 169 167 158 151 145
3 20 139 145 148 151 148 156 161 161 161 166 165 154 179 202 197 176 161 160 168 183 187 163 156 148 143 138 137 134 150 135 176 175 172 194 199 189 188 171 162 166 181 196 188 181 157
42 54 92 128 135 136 137 142 148 147 149 158 154 154 167 174 163 168 158 164 169 167 176 165 159 147 142 143 135 130 130 151 173 165 158 174 203 179 174 181 172 170 185 185 198 209 202
38 46 79 114 127 134 136 138 142 137 140 140 143 151 165 180 152 154 160 159 163 159 157 154 145 141 144 132 128 134 136 151 154 154 151 174 196 176 182 176 170 187 249 228 188 188 222
48 58 61 104 119 128 132 136 131 125 126 126 145 152 168 176 171 159 153 152 154 161 156 151 146 143 136 128 129 127 128 144 150 148 149 152 222 211 197 208 218 227 282 309 238 272 330
52 74 80 88 79 103 117 126 131 132 123 137 156 160 165 156 159 154 154 154 152 152 156 155 146 140 136 131 130 126 127 135 133 135 143 154 201 217 238 258 263 308 298 320 338 311 43
39 78 81 75 77 79 87 99 111 123 130 161 171 165 167 158 156 154 154 154 154 155 156 151 144 143 138 130 131 128 133 131 131 137 135 141 145 168 166 184 197 245 282 254 258 228 129
16 20 84 80 74 82 89 95 109 124 142 174 181 182 173 156 156 157 158 157 156 158 155 155 149 142 135 134 135 131 129 131 135 139 137 140 144 147 141 157 156 152 166 165 162 170 167
355 24 47 86 75 70 64 68 106 176 167 178 186 179 172 158 155 156 161 162 154 160 157 154 155 148 143 138 141 137 133 128 130 132 138 141 143 148 145 153 138 157 169 164 155 155 148
336 356 13 62 95 31 54 39 12 4 109 172 188 196 184 167 159 164 166 163 159 156 160 155 153 148 143 151 143 146 143 145 144 143 146 148 156 153 150 149 155 165 164 156 155 155 151
310 317 348 21 62 120 348 7 6 355 317 250 239 221 204 151 165 167 166 162 165 166 158 162 154 151 154 151 148 155 155 158 154 155 151 158 157 168 161 154 145 157 148 149 164 154 133
297 295 304 346 31 63 340 350 345 345 339 311 285 254 225 214 186 171 177 170 185 180 173 167 157 160 161 168 167 163 161 154 161 162 161 162 169 167 169 165 168 123 120 107 138 114 98
298 298 288 306 16 55 344 350 354 342 332 318 311 297 278 290 302 177 201 193 184 185 164 147 154 165 167 176 173 166 168 159 166 161 166 164 154 148 146 148 144 101 102 120 80 69 67
305 300 295 330 3 64 352 328 331 330 328 320 314 321 315 324 325 332 4 15 13 186 217 154 189 178 186 171 162 155 148 135 152 138 119 142 134 116 114 91 77 120 81 65 65 61 46